Location: Unspecified
(0.0000°N, 0.0000°E)
Time: 22:27:51
(UTC+00:00)

Hubble Space Telescope - Pass Details

Date: 01 December 2022
Orbit: 530 x 534 km, 28.5° (Epoch: 01 December)

Event Time Altitude Azimuth Distance (km) Brightness Sun altitude
Exits shadow 03:09:52 11° 125° (SE) 1,696 4.0 -36.4°
Drops below altitude 10° 03:10:14 10° 120° (ESE) 1,765 4.2 -36.4°
Sets 03:13:25 0° 94° (E) 2,652 5.2 -35.6°
